TimeEST,TemperatureF,Dew PointF,Humidity,Sea Level PressureIn,VisibilityMPH,Wind Direction,Wind SpeedMPH,Gust SpeedMPH,PrecipitationIn,Events,Conditions,WindDirDegrees,DateUTC
12:15 AM,-9999,-9999,N/A,29.65,10.0,Calm,Calm,-,N/A,,Overcast,0,2013-02-27 05:15:00
12:35 AM,-9999,-9999,N/A,29.63,5.0,Calm,Calm,-,N/A,,Haze,0,2013-02-27 05:35:00
12:55 AM,-9999,-9999,N/A,29.64,3.0,Calm,Calm,-,N/A,,Overcast,0,2013-02-27 05:55:00
1:15 AM,-9999,-9999,N/A,29.64,2.5,Calm,Calm,-,N/A,,Overcast,0,2013-02-27 06:15:00
1:35 AM,-9999,-9999,N/A,29.64,3.0,Calm,Calm,-,N/A,,Overcast,0,2013-02-27 06:35:00
1:55 AM,-9999,-9999,N/A,29.65,1.8,WSW,4.6,-,N/A,,Overcast,240,2013-02-27 06:55:00
2:15 AM,-9999,-9999,N/A,29.64,2.0,West,3.5,-,N/A,,Overcast,260,2013-02-27 07:15:00
2:35 AM,-9999,-9999,N/A,29.63,3.0,Calm,Calm,-,N/A,,Overcast,0,2013-02-27 07:35:00
3:15 AM,-9999,-9999,N/A,29.63,7.0,SW,3.5,-,N/A,,Overcast,230,2013-02-27 08:15:00
3:55 AM,-9999,-9999,N/A,29.64,5.0,WSW,3.5,-,N/A,,Haze,240,2013-02-27 08:55:00
4:15 AM,-9999,-9999,N/A,29.65,5.0,Calm,Calm,-,N/A,,Haze,0,2013-02-27 09:15:00
4:35 AM,-9999,-9999,N/A,29.65,5.0,WSW,5.8,-,N/A,,Haze,240,2013-02-27 09:35:00
4:55 AM,-9999,-9999,N/A,29.66,5.0,WSW,3.5,-,N/A,,Haze,250,2013-02-27 09:55:00
5:15 AM,-9999,-9999,N/A,29.67,5.0,WSW,3.5,-,N/A,,Haze,250,2013-02-27 10:15:00
5:35 AM,-9999,-9999,N/A,29.68,5.0,WSW,4.6,-,N/A,,Haze,240,2013-02-27 10:35:00
5:55 AM,-9999,-9999,N/A,29.68,5.0,West,3.5,-,N/A,,Haze,270,2013-02-27 10:55:00
6:15 AM,-9999,-9999,N/A,29.69,5.0,WSW,4.6,-,N/A,,Haze,250,2013-02-27 11:15:00
6:35 AM,-9999,-9999,N/A,29.70,7.0,WNW,3.5,-,N/A,,Scattered Clouds,290,2013-02-27 11:35:00
6:55 AM,-9999,-9999,N/A,29.70,5.0,WSW,3.5,-,N/A,,Haze,250,2013-02-27 11:55:00
7:15 AM,-9999,-9999,N/A,29.71,5.0,Calm,Calm,-,N/A,,Haze,0,2013-02-27 12:15:00
7:35 AM,-9999,-9999,N/A,29.73,7.0,Calm,Calm,-,N/A,,Clear,0,2013-02-27 12:35:00
7:55 AM,-9999,-9999,N/A,29.74,10.0,Calm,Calm,-,N/A,,Clear,0,2013-02-27 12:55:00
8:35 AM,45.3,42.4,90,29.76,10.0,WSW,5.8,-,N/A,,Clear,250,2013-02-27 13:35:00
8:55 AM,47.1,39.7,76,29.76,10.0,WSW,6.9,-,N/A,,Clear,240,2013-02-27 13:55:00
9:15 AM,48.7,39.0,69,29.76,10.0,WSW,3.5,-,N/A,,Clear,250,2013-02-27 14:15:00
9:35 AM,50.4,37.4,61,29.76,10.0,West,8.1,-,N/A,,Clear,270,2013-02-27 14:35:00
9:55 AM,50.9,35.2,55,29.77,10.0,NW,10.4,-,N/A,,Mostly Cloudy,310,2013-02-27 14:55:00
10:15 AM,51.1,35.6,55,29.78,10.0,West,10.4,-,N/A,,Overcast,270,2013-02-27 15:15:00
10:35 AM,50.7,34.9,55,29.78,10.0,West,8.1,16.1,N/A,,Overcast,270,2013-02-27 15:35:00
10:55 AM,52.7,34.9,51,29.79,10.0,WNW,11.5,17.3,N/A,,Overcast,300,2013-02-27 15:55:00
11:15 AM,51.6,35.6,54,29.78,10.0,NW,6.9,17.3,N/A,,Overcast,320,2013-02-27 16:15:00
11:35 AM,54.9,36.3,50,29.79,10.0,NW,11.5,-,N/A,,Overcast,320,2013-02-27 16:35:00
11:55 AM,53.2,34.5,49,29.79,10.0,WNW,6.9,17.3,N/A,,Overcast,290,2013-02-27 16:55:00
12:15 PM,54.9,36.0,49,29.78,10.0,NNW,13.8,-,N/A,,Overcast,330,2013-02-27 17:15:00
12:35 PM,52.0,34.0,50,29.78,10.0,NW,5.8,-,N/A,,Overcast,310,2013-02-27 17:35:00
12:55 PM,54.7,34.9,47,29.77,10.0,WSW,5.8,-,N/A,,Mostly Cloudy,240,2013-02-27 17:55:00
1:15 PM,55.4,35.1,46,29.77,10.0,NW,6.9,-,N/A,,Mostly Cloudy,310,2013-02-27 18:15:00
1:35 PM,57.2,34.2,42,29.76,10.0,WSW,8.1,-,N/A,,Mostly Cloudy,250,2013-02-27 18:35:00
1:55 PM,55.4,34.7,46,29.74,10.0,NNW,3.5,-,N/A,,Mostly Cloudy,340,2013-02-27 18:55:00
2:15 PM,56.8,34.3,43,29.73,10.0,Calm,Calm,-,N/A,,Mostly Cloudy,0,2013-02-27 19:15:00
2:35 PM,59.0,35.1,41,29.73,10.0,WSW,5.8,-,N/A,,Scattered Clouds,250,2013-02-27 19:35:00
2:55 PM,57.9,34.7,42,29.72,10.0,SW,4.6,-,N/A,,Scattered Clouds,220,2013-02-27 19:55:00
3:15 PM,59.0,35.8,42,29.72,10.0,NNW,4.6,-,N/A,,Mostly Cloudy,340,2013-02-27 20:15:00
3:35 PM,60.1,35.2,39,29.72,10.0,West,6.9,-,N/A,,Mostly Cloudy,280,2013-02-27 20:35:00
3:55 PM,60.1,35.2,39,29.72,10.0,WSW,4.6,-,N/A,,Scattered Clouds,240,2013-02-27 20:55:00
4:15 PM,59.0,34.3,40,29.72,10.0,WSW,6.9,-,N/A,,Clear,250,2013-02-27 21:15:00
4:35 PM,57.6,35.2,43,29.72,10.0,SW,3.5,-,N/A,,Clear,220,2013-02-27 21:35:00
4:55 PM,57.4,36.0,45,29.72,10.0,SW,3.5,-,N/A,,Scattered Clouds,230,2013-02-27 21:55:00
5:15 PM,57.2,36.1,45,29.72,10.0,SSW,8.1,-,N/A,,Scattered Clouds,200,2013-02-27 22:15:00
5:35 PM,56.7,36.5,47,29.72,10.0,SSW,9.2,-,N/A,,Scattered Clouds,210,2013-02-27 22:35:00
5:55 PM,54.9,36.7,50,29.72,10.0,SW,3.5,-,N/A,,Scattered Clouds,220,2013-02-27 22:55:00
6:15 PM,53.4,37.2,54,29.73,10.0,Calm,Calm,-,N/A,,Clear,0,2013-02-27 23:15:00
6:35 PM,51.8,37.4,58,29.73,10.0,Calm,Calm,-,N/A,,Clear,0,2013-02-27 23:35:00
6:55 PM,50.7,37.8,61,29.73,10.0,Calm,Calm,-,N/A,,Clear,0,2013-02-27 23:55:00
7:15 PM,48.6,37.8,66,29.73,10.0,Calm,Calm,-,N/A,,Clear,0,2013-02-28 00:15:00
7:35 PM,45.1,37.8,75,29.73,10.0,Calm,Calm,-,N/A,,Clear,0,2013-02-28 00:35:00
7:55 PM,43.2,38.1,82,29.73,10.0,NW,3.5,-,N/A,,Mostly Cloudy,320,2013-02-28 00:55:00
8:15 PM,43.9,38.7,82,29.73,10.0,SE,3.5,-,N/A,,Overcast,130,2013-02-28 01:15:00
8:35 PM,42.4,38.3,85,29.73,10.0,Calm,Calm,-,N/A,,Overcast,0,2013-02-28 01:35:00
8:55 PM,45.1,38.8,79,29.73,10.0,Calm,Calm,-,N/A,,Overcast,0,2013-02-28 01:55:00
9:15 PM,46.0,41.0,83,29.77,7.0,WNW,10.4,-,0.02,Rain,Rain,300,2013-02-28 02:15:00
9:35 PM,45.7,45.0,97,29.76,10.0,West,3.5,-,0.06,Rain,Light Rain,260,2013-02-28 02:35:00
9:55 PM,45.3,44.8,98,29.74,10.0,Calm,Calm,-,0.06,,Overcast,0,2013-02-28 02:55:00
10:15 PM,44.1,44.1,100,29.74,10.0,Calm,Calm,-,0.01,,Overcast,0,2013-02-28 03:15:00
10:35 PM,-9999,-9999,N/A,29.74,2.0,Calm,Calm,-,0.01,,Mostly Cloudy,0,2013-02-28 03:35:00
10:55 PM,-9999,-9999,N/A,29.74,1.8,Calm,Calm,-,0.01,,Mostly Cloudy,0,2013-02-28 03:55:00
11:15 PM,-9999,-9999,N/A,29.74,0.8,Calm,Calm,-,N/A,,Overcast,0,2013-02-28 04:15:00
11:35 PM,-9999,-9999,N/A,29.74,10.0,WNW,4.6,-,N/A,,Overcast,300,2013-02-28 04:35:00
11:55 PM,43.0,38.7,85,29.73,10.0,NW,5.8,-,N/A,,Overcast,310,2013-02-28 04:55:00